Terminal Aerodrome Forecast
Issued by NWS Lubbock, TX

Home | Current Version | Previous Version | Text Only | Print | Product List | Glossary On
Versions: 1 2 3 4 5 6 7 8 9 10 11 12 13 14 15 16 17 18 19 20 21 22 23 24
348
FTUS44 KLUB 081735
TAFLBB
TAF
KLBB 081735Z 0818/0918 08008KT P6SM FEW025 BKN060=

USA.gov is the U.S. government's official web portal to all federal, state and local government web resources and services.